Change the Weather History Date:

Thursday, September 19, 2013

  Actual Average Record
Temperature  
Mean Temperature 80 °F -  
Max Temperature 89 °F 74 °F 95 °F (1948)
Min Temperature 71 °F 61 °F 43 °F (2012)
Cooling Degree Days 15    
Growing Degree Days 30 (Base 50)    
Moisture  
Dew Point 70 °F    
Average Humidity 76    
Maximum Humidity 93    
Minimum Humidity 52    
Precipitation  
Precipitation 0.02 in - - ()
Sea Level Pressure  
Sea Level Pressure 29.94 in    
Wind  
Wind Speed 5 mph (South)    
Max Wind Speed 9 mph    
Max Gust Speed -    
Visibility 9 miles    
Events Rain    
Averages and records for this station are not official NWS values.
T = Trace of Precipitation, MM = Missing Value Source: NWS Daily Summary

Daily Weather History Graph

Daily Weather History Graph

Search for Another Location

Airport or City:

Trip Planner

Search our weather history database for the weather conditions in past years. The results will help you decide how hot, cold, wet, or windy it might be!

Date:

Astronomy

Sep. 19, 2013 Rise Set
Actual Time 6:45 AM CDT 7:01 PM CDT
Civil Twilight 6:19 AM CDT 7:28 PM CDT
Nautical Twilight 5:48 AM CDT 7:59 PM CDT
Astronomical Twilight 5:16 AM CDT 8:31 PM CDT
Moon 7:01 PM CDT (9/19) 6:54 AM CDT (9/19)
Length of Visible Light 13h 09m
Length of Day
12h 16m
Full, 100% of the Moon is Illuminated
Sep 19
Full
Sep 26
Last Quarter
Oct 4
New
Oct 11
First Quarter
Oct 18
Full

Hourly Weather History & Observations

Time (CDT) Temp. Heat Index Dew Point Humidity Pressure Visibility Wind Dir Wind Speed Gust Speed Precip Events Conditions
12:53 AM 72.0 °F - 66.9 °F 84% 29.98 in 10.0 mi SSE 5.8 mph - N/A   Clear
1:53 AM 71.1 °F - 66.9 °F 87% 29.98 in 8.0 mi Calm Calm - N/A   Clear
2:53 AM 73.0 °F - 68.0 °F 84% 29.98 in 8.0 mi SSE 5.8 mph - N/A   Clear
3:53 AM 72.0 °F - 68.0 °F 87% 29.98 in 8.0 mi South 3.5 mph - N/A   Clear
4:53 AM 72.0 °F - 69.1 °F 91% 29.97 in 7.0 mi SSE 4.6 mph - N/A   Clear
5:53 AM 72.0 °F - 69.1 °F 91% 29.98 in 7.0 mi SSE 4.6 mph - N/A   Overcast
6:53 AM 72.0 °F - 69.1 °F 91% 29.99 in 7.0 mi SSE 6.9 mph - 0.00 in   Overcast
7:53 AM 72.0 °F - 70.0 °F 93% 29.99 in 5.0 mi South 3.5 mph - 0.02 in Rain Light Rain
8:53 AM 73.0 °F - 70.0 °F 90% 29.99 in 6.0 mi South 5.8 mph - 0.00 in   Partly Cloudy
9:53 AM 75.9 °F - 71.1 °F 85% 30.00 in 7.0 mi South 8.1 mph - N/A   Partly Cloudy
10:53 AM 79.0 °F - 70.0 °F 74% 30.00 in 10.0 mi SSW 9.2 mph - N/A   Clear
11:53 AM 80.1 °F 83.2 °F 70.0 °F 71% 29.99 in 10.0 mi SW 6.9 mph - N/A   Partly Cloudy
12:53 PM 84.9 °F 90.7 °F 72.0 °F 65% 29.96 in 10.0 mi SSW 5.8 mph - N/A   Clear
1:53 PM 87.1 °F 92.8 °F 71.1 °F 59% 29.94 in 10.0 mi SSW 9.2 mph - N/A   Clear
2:53 PM 86.0 °F 90.7 °F 70.0 °F 59% 29.93 in 10.0 mi SSW 8.1 mph - N/A   Clear
3:53 PM 89.1 °F 93.7 °F 69.1 °F 52% 29.90 in 10.0 mi Variable 6.9 mph - N/A   Clear
4:53 PM 89.1 °F 93.7 °F 69.1 °F 52% 29.88 in 10.0 mi South 8.1 mph - N/A   Clear
5:53 PM 87.1 °F 91.3 °F 69.1 °F 55% 29.86 in 10.0 mi South 5.8 mph - N/A   Scattered Clouds
6:53 PM 84.0 °F 88.4 °F 70.0 °F 63% 29.86 in 10.0 mi South 6.9 mph - N/A   Clear
7:53 PM 81.0 °F 84.4 °F 70.0 °F 69% 29.88 in 10.0 mi South 5.8 mph - N/A   Clear
8:53 PM 79.0 °F - 70.0 °F 74% 29.90 in 10.0 mi South 4.6 mph - N/A   Clear
9:53 PM 78.1 °F - 71.1 °F 79% 29.90 in 10.0 mi South 4.6 mph - N/A   Clear
10:53 PM 77.0 °F - 71.1 °F 82% 29.91 in 10.0 mi South 5.8 mph - N/A   Clear
11:53 PM 75.9 °F - 71.1 °F 85% 29.91 in 10.0 mi South 3.5 mph - N/A   Partly Cloudy